Weather History for Bismarck, ND

Change the Weather History Date:

Saturday, September 1, 2012

  Actual Average Record
Temperature  
Mean Temperature 83 °F 65 °F  
Max Temperature 100 °F 79 °F 103 °F (1983)
Min Temperature 66 °F 51 °F 32 °F (1974)
Degree Days  
Heating Degree Days 0 3  
Month to date heating degree days 0 3  
Since 1 July heating degree days 26 58  
Cooling Degree Days 18 3  
Month to date cooling degree days 18 3  
Year to date cooling degree days 584 484  
Growing Degree Days 32 (Base 50)    
Moisture  
Dew Point 50 °F    
Average Humidity 37    
Maximum Humidity 56    
Minimum Humidity 17    
Precipitation  
Precipitation T in 0.07 in 1.15 in (2008)
Month to date precipitation T 0.07  
Year to date precipitation 12.13 13.88  
Snow  
Snow 0.00 in 0.00 in 0.00 in (2002)
Month to date snowfall 0.0 0.0  
Since 1 July snowfall 0.0 0.0  
Since 1 September snowfall 0.0 0.0  
Snow Depth 0.00 in    
Sea Level Pressure  
Sea Level Pressure 29.81 in    
Wind  
Wind Speed 17 mph (SE)    
Max Wind Speed 37 mph    
Max Gust Speed 53 mph    
Visibility 10 miles    
Events Rain , Thunderstorm    
T = Trace of Precipitation, MM = Missing Value Source: NWS Daily Summary

Daily Weather History Graph

Daily Weather History Graph

Search for Another Location

Airport:

Trip Planner

Search our weather history database for the weather conditions in past years. The results will help you decide how hot, cold, wet, or windy it might be!

Date:

Astronomy

Sep. 01, 2012 Rise Set
Actual Time 7:03 AM CDT 8:21 PM CDT
Civil Twilight 6:32 AM CDT 8:52 PM CDT
Nautical Twilight 5:54 AM CDT 9:30 PM CDT
Astronomical Twilight 5:13 AM CDT 10:10 PM CDT
Moon 8:28 PM CDT (9/1) 8:21 AM CDT (9/1)
Length of Visible Light 14h 20m
Length of Day
13h 17m
Full, 99% of the Moon is Illuminated
Sep 1
Full
Sep 8
Last Quarter
Sep 15
New
Sep 22
First Quarter
Sep 29
Full

Hourly Weather History & Observations

Time (CDT) Temp. Heat Index Dew Point Humidity Pressure Visibility Wind Dir Wind Speed Gust Speed Precip Events Conditions
12:52 AM 69.1 °F - 48.0 °F 47% 30.00 in 10.0 mi ESE 13.8 mph - 0.00 in   Mostly Cloudy
1:52 AM 69.1 °F - 46.9 °F 45% 30.00 in 10.0 mi ESE 12.7 mph - N/A   Clear
2:39 AM 69.8 °F - 46.4 °F 43% 30.00 in 10.0 mi ESE 13.8 mph - N/A   Partly Cloudy
2:52 AM 68.0 °F - 48.0 °F 49% 29.97 in 10.0 mi East 10.4 mph - N/A   Partly Cloudy
3:52 AM 68.0 °F - 48.0 °F 49% 29.96 in 10.0 mi East 16.1 mph - N/A   Clear
4:52 AM 66.9 °F - 46.9 °F 49% 29.94 in 10.0 mi East 15.0 mph 24.2 mph N/A   Clear
5:52 AM 66.0 °F - 46.9 °F 50% 29.91 in 10.0 mi East 13.8 mph - N/A   Clear
6:52 AM 66.2 °F - 46.4 °F 49% 29.92 in 10.0 mi East 8.1 mph - N/A   Clear
7:52 AM 66.9 °F - 48.0 °F 51% 29.91 in 10.0 mi SE 18.4 mph 23.0 mph N/A   Clear
8:52 AM 66.9 °F - 50.0 °F 54% 29.90 in 10.0 mi SE 13.8 mph - N/A   Clear
9:52 AM 71.1 °F - 52.0 °F 51% 29.88 in 10.0 mi SE 17.3 mph 21.9 mph N/A   Clear
10:52 AM 73.0 °F - 52.0 °F 48% 29.85 in 10.0 mi SSE 18.4 mph 25.3 mph N/A   Clear
11:52 AM 77.0 °F - 53.1 °F 43% 29.83 in 10.0 mi SSE 17.3 mph 24.2 mph N/A   Clear
12:52 PM 86.0 °F 84.2 °F 54.0 °F 33% 29.80 in 10.0 mi SSE 26.5 mph 32.2 mph N/A   Clear
1:52 PM 91.9 °F 89.5 °F 54.0 °F 27% 29.76 in 10.0 mi SSE 21.9 mph - N/A   Clear
2:52 PM 96.1 °F - 50.0 °F 21% 29.72 in 10.0 mi South 25.3 mph 33.4 mph N/A   Clear
3:52 PM 99.0 °F - 48.9 °F 18% 29.68 in 10.0 mi SSE 24.2 mph 34.5 mph N/A   Clear
4:52 PM 99.0 °F - 46.0 °F 16% 29.65 in 10.0 mi SSE 27.6 mph 38.0 mph N/A   Clear
5:52 PM 98.1 °F - 46.9 °F 18% 29.64 in 10.0 mi SSE 25.3 mph 34.5 mph N/A   Clear
6:52 PM 96.1 °F - 46.9 °F 19% 29.61 in 10.0 mi SSE 24.2 mph 32.2 mph N/A   Clear
7:52 PM 91.0 °F - 51.1 °F 25% 29.62 in 10.0 mi SSE 16.1 mph - N/A   Clear
8:06 PM 91.4 °F - 51.8 °F 26% 29.65 in 10.0 mi SSE 19.6 mph - N/A Thunderstorm Clear
8:25 PM 91.4 °F - 50.0 °F 24% 29.70 in 10.0 mi WSW 11.5 mph 19.6 mph N/A   Scattered Clouds
8:52 PM 89.1 °F - 51.1 °F 27% 29.70 in 10.0 mi South 17.3 mph 31.1 mph 0.00 in Rain Light Rain
9:52 PM 87.1 °F - 51.1 °F 29% 29.68 in 10.0 mi SE 12.7 mph - 0.00 in   Partly Cloudy
10:52 PM 82.9 °F 81.8 °F 53.1 °F 36% 29.68 in 10.0 mi SE 18.4 mph - N/A   Clear
11:52 PM 84.0 °F 82.5 °F 53.1 °F 34% 29.68 in 10.0 mi South 8.1 mph - N/A   Clear